Location: Brodeslavy
(49.9527°N, 13.5567°E)
Time: 04:55:22
(UTC+00:00)

NOSS 3-1 (C) - Pass Details

Date: 17 June 2025
Orbit: 625 x 1577 km, 63.4° (Epoch: 18 June)

Event Time Altitude Azimuth Distance (km) Brightness Sun altitude
Rises 20:09:45 0° 315° (NW) 3,611 9.1 -6.8°
Reaches altitude 10° 20:12:08 10° 320° (NW) 2,789 7.7 -7.1°
Maximum altitude 20:18:45 56° 39° (NE) 1,391 4.4 -7.7°
Drops below altitude 10° 20:27:00 10° 116° (ESE) 3,468 5.8 -8.5°
Enters shadow 20:28:15 - 118° (ESE) 3,878 6.1 -8.7°
